<?xml version="1.0"?>
<gpx xmlns="http://www.topografix.com/GPX/1/1" xmlns:xsi="http://www.w3.org/2001/XMLSchema-instance" version="1.1" creator="GPX RubyGem 1.0.0 -- http://dougfales.github.io/gpx/" xsi:schemaLocation="http://www.topografix.com/GPX/1/1 http://www.topografix.com/GPX/1/1/gpx.xsd">
  <metadata>
    <name/>
    <time>2026-05-07T22:30:18+00:00</time>
    <bound minlat="90.0" minlon="180.0" maxlat="-90.0" maxlon="-180.0"/>
  </metadata>
  <trk>
    <name/>
    <trkseg>
      <trkpt lat="46.660011" lon="7.863584">
        <time>1970-01-01T00:00:00+00:00</time>
        <ele>603.0</ele>
      </trkpt>
      <trkpt lat="46.659903" lon="7.863621">
        <time>1970-01-01T00:00:00+00:00</time>
        <ele>602.0</ele>
      </trkpt>
      <trkpt lat="46.659919" lon="7.863266">
        <time>1970-01-01T00:00:00+00:00</time>
        <ele>603.0</ele>
      </trkpt>
      <trkpt lat="46.659919" lon="7.862803">
        <time>1970-01-01T00:00:00+00:00</time>
        <ele>605.0</ele>
      </trkpt>
      <trkpt lat="46.659824" lon="7.860798">
        <time>1970-01-01T00:00:00+00:00</time>
        <ele>614.0</ele>
      </trkpt>
      <trkpt lat="46.659848" lon="7.860247">
        <time>1970-01-01T00:00:00+00:00</time>
        <ele>619.0</ele>
      </trkpt>
      <trkpt lat="46.659955" lon="7.859658">
        <time>1970-01-01T00:00:00+00:00</time>
        <ele>622.0</ele>
      </trkpt>
      <trkpt lat="46.660107" lon="7.85943">
        <time>1970-01-01T00:00:00+00:00</time>
        <ele>622.0</ele>
      </trkpt>
      <trkpt lat="46.66007" lon="7.858954">
        <time>1970-01-01T00:00:00+00:00</time>
        <ele>627.0</ele>
      </trkpt>
      <trkpt lat="46.660169" lon="7.859009">
        <time>1970-01-01T00:00:00+00:00</time>
        <ele>625.0</ele>
      </trkpt>
      <trkpt lat="46.660218" lon="7.858586">
        <time>1970-01-01T00:00:00+00:00</time>
        <ele>627.0</ele>
      </trkpt>
      <trkpt lat="46.66021" lon="7.858553">
        <time>1970-01-01T00:00:00+00:00</time>
        <ele>627.0</ele>
      </trkpt>
      <trkpt lat="46.660143" lon="7.858496">
        <time>1970-01-01T00:00:00+00:00</time>
        <ele>629.0</ele>
      </trkpt>
      <trkpt lat="46.660144" lon="7.858017">
        <time>1970-01-01T00:00:00+00:00</time>
        <ele>632.0</ele>
      </trkpt>
      <trkpt lat="46.660144" lon="7.857811">
        <time>1970-01-01T00:00:00+00:00</time>
        <ele>634.0</ele>
      </trkpt>
      <trkpt lat="46.660132" lon="7.857751">
        <time>1970-01-01T00:00:00+00:00</time>
        <ele>635.0</ele>
      </trkpt>
      <trkpt lat="46.660114" lon="7.857657">
        <time>1970-01-01T00:00:00+00:00</time>
        <ele>636.0</ele>
      </trkpt>
      <trkpt lat="46.660114" lon="7.857657">
        <time>1970-01-01T00:00:00+00:00</time>
        <ele>636.0</ele>
      </trkpt>
      <trkpt lat="46.660132" lon="7.857751">
        <time>1970-01-01T00:00:00+00:00</time>
        <ele>635.0</ele>
      </trkpt>
      <trkpt lat="46.660144" lon="7.857811">
        <time>1970-01-01T00:00:00+00:00</time>
        <ele>634.0</ele>
      </trkpt>
      <trkpt lat="46.660144" lon="7.858017">
        <time>1970-01-01T00:00:00+00:00</time>
        <ele>632.0</ele>
      </trkpt>
      <trkpt lat="46.660143" lon="7.858496">
        <time>1970-01-01T00:00:00+00:00</time>
        <ele>629.0</ele>
      </trkpt>
      <trkpt lat="46.66021" lon="7.858553">
        <time>1970-01-01T00:00:00+00:00</time>
        <ele>627.0</ele>
      </trkpt>
      <trkpt lat="46.660218" lon="7.858586">
        <time>1970-01-01T00:00:00+00:00</time>
        <ele>627.0</ele>
      </trkpt>
      <trkpt lat="46.660169" lon="7.859009">
        <time>1970-01-01T00:00:00+00:00</time>
        <ele>625.0</ele>
      </trkpt>
      <trkpt lat="46.66007" lon="7.858954">
        <time>1970-01-01T00:00:00+00:00</time>
        <ele>627.0</ele>
      </trkpt>
      <trkpt lat="46.6598" lon="7.858802">
        <time>1970-01-01T00:00:00+00:00</time>
        <ele>645.0</ele>
      </trkpt>
      <trkpt lat="46.659767" lon="7.859013">
        <time>1970-01-01T00:00:00+00:00</time>
        <ele>647.0</ele>
      </trkpt>
      <trkpt lat="46.65961" lon="7.859873">
        <time>1970-01-01T00:00:00+00:00</time>
        <ele>631.0</ele>
      </trkpt>
      <trkpt lat="46.659589" lon="7.86032">
        <time>1970-01-01T00:00:00+00:00</time>
        <ele>623.0</ele>
      </trkpt>
      <trkpt lat="46.659589" lon="7.860826">
        <time>1970-01-01T00:00:00+00:00</time>
        <ele>616.0</ele>
      </trkpt>
      <trkpt lat="46.659599" lon="7.86127">
        <time>1970-01-01T00:00:00+00:00</time>
        <ele>612.0</ele>
      </trkpt>
      <trkpt lat="46.659751" lon="7.862941">
        <time>1970-01-01T00:00:00+00:00</time>
        <ele>604.0</ele>
      </trkpt>
      <trkpt lat="46.659919" lon="7.863266">
        <time>1970-01-01T00:00:00+00:00</time>
        <ele>603.0</ele>
      </trkpt>
      <trkpt lat="46.659903" lon="7.863621">
        <time>1970-01-01T00:00:00+00:00</time>
        <ele>602.0</ele>
      </trkpt>
      <trkpt lat="46.660011" lon="7.863584">
        <time>1970-01-01T00:00:00+00:00</time>
        <ele>603.0</ele>
      </trkpt>
    </trkseg>
  </trk>
</gpx>
